This is the latest recevied weather packets stored in our database for station/object W2SBL-1. If no packets are shown the sender has not sent any weather packets the latest 10 day(s).
| Time | Temp. | Humidity | Pressure | Rain* | Wind** | Luminosity | Snow |
|---|---|---|---|---|---|---|---|
| 1777325717 | 25° C | 46% | 1023.6 hPa | - | - | - | - |
| 1777324817 | 26.11° C | 45% | 1023.7 hPa | - | - | - | - |
| 1777323917 | 26.67° C | 44% | 1023.4 hPa | - | - | - | - |
| 1777323017 | 27.22° C | 43% | 1023.8 hPa | - | - | - | - |
| 1777322117 | 27.22° C | 44% | 1023.7 hPa | - | - | - | - |
| 1777321217 | 27.22° C | 44% | 1023.4 hPa | - | - | - | - |
| 1777320317 | 26.67° C | 45% | 1023.3 hPa | - | - | - | - |
| 1777319417 | 27.22° C | 45% | 1023.2 hPa | - | - | - | - |
| 1777318517 | 27.78° C | 44% | 1023.3 hPa | - | - | - | - |
| 1777317616 | 27.22° C | 45% | 1023.3 hPa | - | - | - | - |
| 1777316716 | 27.22° C | 45% | 1023.4 hPa | - | - | - | - |
| 1777315816 | 27.22° C | 46% | 1023.4 hPa | - | - | - | - |
| 1777314916 | 26.67° C | 46% | 1023.6 hPa | - | - | - | - |
| 1777314016 | 26.11° C | 47% | 1023.7 hPa | - | - | - | - |
| 1777313116 | 26.11° C | 47% | 1023.8 hPa | - | - | - | - |
| 1777312216 | 26.67° C | 46% | 1023.9 hPa | - | - | - | - |
| 1777311316 | 26.67° C | 46% | 1023.8 hPa | - | - | - | - |
| 1777310416 | 26.67° C | 46% | 1023.9 hPa | - | - | - | - |
| 1777309516 | 26.67° C | 46% | 1023.7 hPa | - | - | - | - |
| 1777308616 | 26.67° C | 45% | 1023.9 hPa | - | - | - | - |
| 1777307716 | 26.67° C | 44% | 1023.7 hPa | - | - | - | - |
| 1777306815 | 26.11° C | 44% | 1023.7 hPa | - | - | - | - |
| 1777305915 | 26.11° C | 44% | 1023.7 hPa | - | - | - | - |
| 1777305015 | 25.56° C | 43% | 1023.8 hPa | - | - | - | - |
| 1777304115 | 25.56° C | 43% | 1023.9 hPa | - | - | - | - |
* Rain since midnight (hover to see other rain measurements)
** Current wind speed in m/s (hover to see current wind gust speed)